owner,sensor,date,latitude,longitude,vertical_datum,sea_water_practical_salinity,qcFlag 
NERRS,ioos:station:NOAA.NERRS:gndbhwq:1,2012-06-01T00:45:00Z,30.4178,-88.4054,0.0,22.1,1111122 
NERRS,ioos:station:NOAA.NERRS:gndbhwq:1,2012-06-01T01:45:00Z,30.4178,-88.4054,0.0,22.1,1111122 
NERRS,ioos:station:NOAA.NERRS:gndbhwq:1,2012-06-01T02:45:00Z,30.4178,-88.4054,0.0,22.1,1111122 
NERRS,ioos:station:NOAA.NERRS:gndbhwq:1,2012-06-01T03:45:00Z,30.4178,-88.4054,0.0,22.1,1111122 
NERRS,ioos:station:NOAA.NERRS:gndbhwq:1,2012-06-01T04:45:00Z,30.4178,-88.4054,0.0,22.2,1111122 
NERRS,ioos:station:NOAA.NERRS:gndbhwq:1,2012-06-01T05:45:00Z,30.4178,-88.4054,0.0,22.2,1111122 
NERRS,ioos:station:NOAA.NERRS:gndbhwq:1,2012-06-01T06:45:00Z,30.4178,-88.4054,0.0,22.2,1111122 
NERRS,ioos:station:NOAA.NERRS:gndbhwq:1,2012-06-01T07:45:00Z,30.4178,-88.4054,0.0,22.2,1111122 
NERRS,ioos:station:NOAA.NERRS:gndbhwq:1,2012-06-01T08:45:00Z,30.4178,-88.4054,0.0,22.2,1111122 
NERRS,ioos:station:NOAA.NERRS:gndbhwq:1,2012-06-01T09:45:00Z,30.4178,-88.4054,0.0,22.2,1111122 
NERRS,ioos:station:NOAA.NERRS:gndbhwq:1,2012-06-01T10:45:00Z,30.4178,-88.4054,0.0,22.2,1111122 
NERRS,ioos:station:NOAA.NERRS:gndbhwq:1,2012-06-01T11:45:00Z,30.4178,-88.4054,0.0,22.2,1111122 
NERRS,ioos:station:NOAA.NERRS:gndbhwq:1,2012-06-01T12:45:00Z,30.4178,-88.4054,0.0,22.2,1111122 
NERRS,ioos:station:NOAA.NERRS:gndbhwq:1,2012-06-01T13:45:00Z,30.4178,-88.4054,0.0,22.2,1111122 
NERRS,ioos:station:NOAA.NERRS:gndbhwq:1,2012-06-01T14:45:00Z,30.4178,-88.4054,0.0,22.2,1111122 
NERRS,ioos:station:NOAA.NERRS:gndbhwq:1,2012-06-01T15:45:00Z,30.4178,-88.4054,0.0,22.2,1111122 
NERRS,ioos:station:NOAA.NERRS:gndbhwq:1,2012-06-01T16:45:00Z,30.4178,-88.4054,0.0,22.2,1111122 
NERRS,ioos:station:NOAA.NERRS:gndbhwq:1,2012-06-01T17:45:00Z,30.4178,-88.4054,0.0,22.1,1111122 
NERRS,ioos:station:NOAA.NERRS:gndbhwq:1,2012-06-01T18:45:00Z,30.4178,-88.4054,0.0,22.2,1111122 
NERRS,ioos:station:NOAA.NERRS:gndbhwq:1,2012-06-01T19:45:00Z,30.4178,-88.4054,0.0,22.2,1111122 
NERRS,ioos:station:NOAA.NERRS:gndbhwq:1,2012-06-01T20:45:00Z,30.4178,-88.4054,0.0,22.2,1111122 
NERRS,ioos:station:NOAA.NERRS:gndbhwq:1,2012-06-01T21:45:00Z,30.4178,-88.4054,0.0,22.2,1111122 
NERRS,ioos:station:NOAA.NERRS:gndbhwq:1,2012-06-01T22:45:00Z,30.4178,-88.4054,0.0,22.2,1111122 
NERRS,ioos:station:NOAA.NERRS:gndbhwq:1,2012-06-01T23:45:00Z,30.4178,-88.4054,0.0,22.2,1111122 
NERRS,ioos:station:NOAA.NERRS:gndbhwq:1,2012-06-02T00:45:00Z,30.4178,-88.4054,0.0,22.2,1111122 
NERRS,ioos:station:NOAA.NERRS:gndbhwq:1,2012-06-02T01:45:00Z,30.4178,-88.4054,0.0,22.0,1111122 
NERRS,ioos:station:NOAA.NERRS:gndbhwq:1,2012-06-02T02:45:00Z,30.4178,-88.4054,0.0,22.1,1111122 
NERRS,ioos:station:NOAA.NERRS:gndbhwq:1,2012-06-02T03:45:00Z,30.4178,-88.4054,0.0,22.0,1111122 
NERRS,ioos:station:NOAA.NERRS:gndbhwq:1,2012-06-02T04:45:00Z,30.4178,-88.4054,0.0,22.1,1111122 
NERRS,ioos:station:NOAA.NERRS:gndbhwq:1,2012-06-02T05:45:00Z,30.4178,-88.4054,0.0,22.1,1111122 
NERRS,ioos:station:NOAA.NERRS:gndbhwq:1,2012-06-02T06:45:00Z,30.4178,-88.4054,0.0,22.3,1111122 
NERRS,ioos:station:NOAA.NERRS:gndbhwq:1,2012-06-02T07:45:00Z,30.4178,-88.4054,0.0,22.1,1111122 
NERRS,ioos:station:NOAA.NERRS:gndbhwq:1,2012-06-02T08:45:00Z,30.4178,-88.4054,0.0,22.6,1111122 
NERRS,ioos:station:NOAA.NERRS:gndbhwq:1,2012-06-02T09:45:00Z,30.4178,-88.4054,0.0,22.7,1111122 
NERRS,ioos:station:NOAA.NERRS:gndbhwq:1,2012-06-02T10:45:00Z,30.4178,-88.4054,0.0,22.5,1111122 
NERRS,ioos:station:NOAA.NERRS:gndbhwq:1,2012-06-02T11:45:00Z,30.4178,-88.4054,0.0,22.5,1111122 
NERRS,ioos:station:NOAA.NERRS:gndbhwq:1,2012-06-02T12:45:00Z,30.4178,-88.4054,0.0,22.5,1111122 
NERRS,ioos:station:NOAA.NERRS:gndbhwq:1,2012-06-02T13:45:00Z,30.4178,-88.4054,0.0,22.4,1111122 
NERRS,ioos:station:NOAA.NERRS:gndbhwq:1,2012-06-02T14:45:00Z,30.4178,-88.4054,0.0,22.6,1111122 
NERRS,ioos:station:NOAA.NERRS:gndbhwq:1,2012-06-02T15:45:00Z,30.4178,-88.4054,0.0,22.4,1111122 
NERRS,ioos:station:NOAA.NERRS:gndbhwq:1,2012-06-02T16:45:00Z,30.4178,-88.4054,0.0,22.9,1111122 
NERRS,ioos:station:NOAA.NERRS:gndbhwq:1,2012-06-02T17:45:00Z,30.4178,-88.4054,0.0,22.7,1111122 
NERRS,ioos:station:NOAA.NERRS:gndbhwq:1,2012-06-02T18:45:00Z,30.4178,-88.4054,0.0,22.4,1111122 
NERRS,ioos:station:NOAA.NERRS:gndbhwq:1,2012-06-02T19:45:00Z,30.4178,-88.4054,0.0,22.4,1111122 
NERRS,ioos:station:NOAA.NERRS:gndbhwq:1,2012-06-02T20:45:00Z,30.4178,-88.4054,0.0,22.3,1111122 
NERRS,ioos:station:NOAA.NERRS:gndbhwq:1,2012-06-02T21:45:00Z,30.4178,-88.4054,0.0,22.2,1111122 
NERRS,ioos:station:NOAA.NERRS:gndbhwq:1,2012-06-02T22:45:00Z,30.4178,-88.4054,0.0,22.0,1111122 
NERRS,ioos:station:NOAA.NERRS:gndbhwq:1,2012-06-02T23:45:00Z,30.4178,-88.4054,0.0,21.9,1111122 
NERRS,ioos:station:NOAA.NERRS:gndbhwq:1,2012-06-03T00:45:00Z,30.4178,-88.4054,0.0,22.0,1111122 
NERRS,ioos:station:NOAA.NERRS:gndbhwq:1,2012-06-03T01:45:00Z,30.4178,-88.4054,0.0,22.0,1111122 
NERRS,ioos:station:NOAA.NERRS:gndbhwq:1,2012-06-03T02:45:00Z,30.4178,-88.4054,0.0,21.9,1111122 
NERRS,ioos:station:NOAA.NERRS:gndbhwq:1,2012-06-03T03:45:00Z,30.4178,-88.4054,0.0,22.0,1111122 
NERRS,ioos:station:NOAA.NERRS:gndbhwq:1,2012-06-03T04:45:00Z,30.4178,-88.4054,0.0,22.1,1111122 
NERRS,ioos:station:NOAA.NERRS:gndbhwq:1,2012-06-03T05:45:00Z,30.4178,-88.4054,0.0,22.2,1111122 
NERRS,ioos:station:NOAA.NERRS:gndbhwq:1,2012-06-03T06:45:00Z,30.4178,-88.4054,0.0,22.2,1111122 
NERRS,ioos:station:NOAA.NERRS:gndbhwq:1,2012-06-03T07:45:00Z,30.4178,-88.4054,0.0,22.2,1111122 
NERRS,ioos:station:NOAA.NERRS:gndbhwq:1,2012-06-03T08:45:00Z,30.4178,-88.4054,0.0,22.2,1111122 
NERRS,ioos:station:NOAA.NERRS:gndbhwq:1,2012-06-03T09:45:00Z,30.4178,-88.4054,0.0,22.3,1111122 
NERRS,ioos:station:NOAA.NERRS:gndbhwq:1,2012-06-03T10:45:00Z,30.4178,-88.4054,0.0,22.4,1111122 
NERRS,ioos:station:NOAA.NERRS:gndbhwq:1,2012-06-03T11:45:00Z,30.4178,-88.4054,0.0,22.4,1111122 
NERRS,ioos:station:NOAA.NERRS:gndbhwq:1,2012-06-03T12:45:00Z,30.4178,-88.4054,0.0,22.7,1111122 
NERRS,ioos:station:NOAA.NERRS:gndbhwq:1,2012-06-03T13:45:00Z,30.4178,-88.4054,0.0,23.0,1111122 
NERRS,ioos:station:NOAA.NERRS:gndbhwq:1,2012-06-03T14:45:00Z,30.4178,-88.4054,0.0,23.5,1111122 
NERRS,ioos:station:NOAA.NERRS:gndbhwq:1,2012-06-03T15:45:00Z,30.4178,-88.4054,0.0,23.6,1111122 
NERRS,ioos:station:NOAA.NERRS:gndbhwq:1,2012-06-03T16:45:00Z,30.4178,-88.4054,0.0,23.7,1111122 
NERRS,ioos:station:NOAA.NERRS:gndbhwq:1,2012-06-03T17:45:00Z,30.4178,-88.4054,0.0,23.6,1111122 
NERRS,ioos:station:NOAA.NERRS:gndbhwq:1,2012-06-03T18:45:00Z,30.4178,-88.4054,0.0,22.8,1111122 
NERRS,ioos:station:NOAA.NERRS:gndbhwq:1,2012-06-03T19:45:00Z,30.4178,-88.4054,0.0,22.6,1111122 
NERRS,ioos:station:NOAA.NERRS:gndbhwq:1,2012-06-03T20:45:00Z,30.4178,-88.4054,0.0,22.4,1111122 
NERRS,ioos:station:NOAA.NERRS:gndbhwq:1,2012-06-03T21:45:00Z,30.4178,-88.4054,0.0,22.2,1111122 
NERRS,ioos:station:NOAA.NERRS:gndbhwq:1,2012-06-03T22:45:00Z,30.4178,-88.4054,0.0,22.1,1111122 
NERRS,ioos:station:NOAA.NERRS:gndbhwq:1,2012-06-03T23:45:00Z,30.4178,-88.4054,0.0,22.2,1111122 
NERRS,ioos:station:NOAA.NERRS:gndbhwq:1,2012-06-04T00:45:00Z,30.4178,-88.4054,0.0,22.1,1111122 
NERRS,ioos:station:NOAA.NERRS:gndbhwq:1,2012-06-04T01:45:00Z,30.4178,-88.4054,0.0,22.0,1111122 
NERRS,ioos:station:NOAA.NERRS:gndbhwq:1,2012-06-04T02:45:00Z,30.4178,-88.4054,0.0,22.0,1111122 
NERRS,ioos:station:NOAA.NERRS:gndbhwq:1,2012-06-04T03:45:00Z,30.4178,-88.4054,0.0,22.1,1111122 
NERRS,ioos:station:NOAA.NERRS:gndbhwq:1,2012-06-04T04:45:00Z,30.4178,-88.4054,0.0,22.1,1111122 
NERRS,ioos:station:NOAA.NERRS:gndbhwq:1,2012-06-04T05:45:00Z,30.4178,-88.4054,0.0,22.3,1111122 
NERRS,ioos:station:NOAA.NERRS:gndbhwq:1,2012-06-04T06:45:00Z,30.4178,-88.4054,0.0,22.5,1111122 
NERRS,ioos:station:NOAA.NERRS:gndbhwq:1,2012-06-04T07:45:00Z,30.4178,-88.4054,0.0,22.7,1111122 
NERRS,ioos:station:NOAA.NERRS:gndbhwq:1,2012-06-04T08:45:00Z,30.4178,-88.4054,0.0,22.8,1111122 
NERRS,ioos:station:NOAA.NERRS:gndbhwq:1,2012-06-04T09:45:00Z,30.4178,-88.4054,0.0,22.7,1111122 
NERRS,ioos:station:NOAA.NERRS:gndbhwq:1,2012-06-04T10:45:00Z,30.4178,-88.4054,0.0,22.8,1111122 
NERRS,ioos:station:NOAA.NERRS:gndbhwq:1,2012-06-04T11:45:00Z,30.4178,-88.4054,0.0,22.9,1111122 
NERRS,ioos:station:NOAA.NERRS:gndbhwq:1,2012-06-04T12:45:00Z,30.4178,-88.4054,0.0,23.0,1111122 
NERRS,ioos:station:NOAA.NERRS:gndbhwq:1,2012-06-04T13:45:00Z,30.4178,-88.4054,0.0,23.1,1111122 
NERRS,ioos:station:NOAA.NERRS:gndbhwq:1,2012-06-04T14:45:00Z,30.4178,-88.4054,0.0,23.3,1111122 
NERRS,ioos:station:NOAA.NERRS:gndbhwq:1,2012-06-04T15:45:00Z,30.4178,-88.4054,0.0,23.4,1111122 
NERRS,ioos:station:NOAA.NERRS:gndbhwq:1,2012-06-04T16:45:00Z,30.4178,-88.4054,0.0,23.4,1111122 
NERRS,ioos:station:NOAA.NERRS:gndbhwq:1,2012-06-04T17:45:00Z,30.4178,-88.4054,0.0,23.4,1111122 
NERRS,ioos:station:NOAA.NERRS:gndbhwq:1,2012-06-04T18:45:00Z,30.4178,-88.4054,0.0,23.4,1111122 
NERRS,ioos:station:NOAA.NERRS:gndbhwq:1,2012-06-04T19:45:00Z,30.4178,-88.4054,0.0,23.3,1111122 
NERRS,ioos:station:NOAA.NERRS:gndbhwq:1,2012-06-04T20:45:00Z,30.4178,-88.4054,0.0,23.3,1111122 
NERRS,ioos:station:NOAA.NERRS:gndbhwq:1,2012-06-04T21:45:00Z,30.4178,-88.4054,0.0,23.2,1111122 
NERRS,ioos:station:NOAA.NERRS:gndbhwq:1,2012-06-04T22:45:00Z,30.4178,-88.4054,0.0,23.1,1111122 
NERRS,ioos:station:NOAA.NERRS:gndbhwq:1,2012-06-04T23:45:00Z,30.4178,-88.4054,0.0,23.0,1111122 
NERRS,ioos:station:NOAA.NERRS:gndbhwq:1,2012-06-05T00:45:00Z,30.4178,-88.4054,0.0,23.1,1111122 
NERRS,ioos:station:NOAA.NERRS:gndbhwq:1,2012-06-05T01:45:00Z,30.4178,-88.4054,0.0,23.0,1111122 
NERRS,ioos:station:NOAA.NERRS:gndbhwq:1,2012-06-05T02:45:00Z,30.4178,-88.4054,0.0,22.9,1111122 
NERRS,ioos:station:NOAA.NERRS:gndbhwq:1,2012-06-05T03:45:00Z,30.4178,-88.4054,0.0,22.9,1111122 
NERRS,ioos:station:NOAA.NERRS:gndbhwq:1,2012-06-05T04:45:00Z,30.4178,-88.4054,0.0,22.9,1111122 
NERRS,ioos:station:NOAA.NERRS:gndbhwq:1,2012-06-05T05:45:00Z,30.4178,-88.4054,0.0,23.1,1111122 
NERRS,ioos:station:NOAA.NERRS:gndbhwq:1,2012-06-05T06:45:00Z,30.4178,-88.4054,0.0,23.2,1111122 
NERRS,ioos:station:NOAA.NERRS:gndbhwq:1,2012-06-05T07:45:00Z,30.4178,-88.4054,0.0,23.2,1111122 
NERRS,ioos:station:NOAA.NERRS:gndbhwq:1,2012-06-05T08:45:00Z,30.4178,-88.4054,0.0,23.2,1111122 
NERRS,ioos:station:NOAA.NERRS:gndbhwq:1,2012-06-05T09:45:00Z,30.4178,-88.4054,0.0,23.4,1111122 
NERRS,ioos:station:NOAA.NERRS:gndbhwq:1,2012-06-05T10:45:00Z,30.4178,-88.4054,0.0,23.5,1111122 
NERRS,ioos:station:NOAA.NERRS:gndbhwq:1,2012-06-05T11:45:00Z,30.4178,-88.4054,0.0,23.7,1111122 
NERRS,ioos:station:NOAA.NERRS:gndbhwq:1,2012-06-05T12:45:00Z,30.4178,-88.4054,0.0,23.7,1111122 
NERRS,ioos:station:NOAA.NERRS:gndbhwq:1,2012-06-05T13:45:00Z,30.4178,-88.4054,0.0,23.8,1111122 
NERRS,ioos:station:NOAA.NERRS:gndbhwq:1,2012-06-05T14:45:00Z,30.4178,-88.4054,0.0,23.9,1111122 
NERRS,ioos:station:NOAA.NERRS:gndbhwq:1,2012-06-05T15:45:00Z,30.4178,-88.4054,0.0,24.0,1111122 
NERRS,ioos:station:NOAA.NERRS:gndbhwq:1,2012-06-05T16:45:00Z,30.4178,-88.4054,0.0,24.1,1111122 
NERRS,ioos:station:NOAA.NERRS:gndbhwq:1,2012-06-05T17:45:00Z,30.4178,-88.4054,0.0,24.1,1111122 
NERRS,ioos:station:NOAA.NERRS:gndbhwq:1,2012-06-05T18:45:00Z,30.4178,-88.4054,0.0,24.2,1111122 
NERRS,ioos:station:NOAA.NERRS:gndbhwq:1,2012-06-05T19:45:00Z,30.4178,-88.4054,0.0,24.2,1111122 
NERRS,ioos:station:NOAA.NERRS:gndbhwq:1,2012-06-05T20:45:00Z,30.4178,-88.4054,0.0,24.0,1111122 
NERRS,ioos:station:NOAA.NERRS:gndbhwq:1,2012-06-05T21:45:00Z,30.4178,-88.4054,0.0,23.9,1111122 
NERRS,ioos:station:NOAA.NERRS:gndbhwq:1,2012-06-05T22:45:00Z,30.4178,-88.4054,0.0,23.9,1111122 
NERRS,ioos:station:NOAA.NERRS:gndbhwq:1,2012-06-05T23:45:00Z,30.4178,-88.4054,0.0,23.9,1111122 
NERRS,ioos:station:NOAA.NERRS:gndbhwq:1,2012-06-06T00:45:00Z,30.4178,-88.4054,0.0,23.7,1111122 
NERRS,ioos:station:NOAA.NERRS:gndbhwq:1,2012-06-06T01:45:00Z,30.4178,-88.4054,0.0,23.2,1111122 
NERRS,ioos:station:NOAA.NERRS:gndbhwq:1,2012-06-06T02:45:00Z,30.4178,-88.4054,0.0,23.6,1111122 
NERRS,ioos:station:NOAA.NERRS:gndbhwq:1,2012-06-06T03:45:00Z,30.4178,-88.4054,0.0,23.3,1111122 
NERRS,ioos:station:NOAA.NERRS:gndbhwq:1,2012-06-06T04:45:00Z,30.4178,-88.4054,0.0,23.5,1111122 
NERRS,ioos:station:NOAA.NERRS:gndbhwq:1,2012-06-06T05:45:00Z,30.4178,-88.4054,0.0,23.3,1111122 
NERRS,ioos:station:NOAA.NERRS:gndbhwq:1,2012-06-06T06:45:00Z,30.4178,-88.4054,0.0,23.4,1111122 
NERRS,ioos:station:NOAA.NERRS:gndbhwq:1,2012-06-06T07:45:00Z,30.4178,-88.4054,0.0,23.5,1111122 
NERRS,ioos:station:NOAA.NERRS:gndbhwq:1,2012-06-06T08:45:00Z,30.4178,-88.4054,0.0,23.6,1111122 
NERRS,ioos:station:NOAA.NERRS:gndbhwq:1,2012-06-06T09:45:00Z,30.4178,-88.4054,0.0,23.7,1111122 
NERRS,ioos:station:NOAA.NERRS:gndbhwq:1,2012-06-06T10:45:00Z,30.4178,-88.4054,0.0,23.8,1111122 
NERRS,ioos:station:NOAA.NERRS:gndbhwq:1,2012-06-06T11:45:00Z,30.4178,-88.4054,0.0,23.9,1111122 
NERRS,ioos:station:NOAA.NERRS:gndbhwq:1,2012-06-06T12:45:00Z,30.4178,-88.4054,0.0,24.0,1111122 
NERRS,ioos:station:NOAA.NERRS:gndbhwq:1,2012-06-06T13:45:00Z,30.4178,-88.4054,0.0,24.1,1111122 
NERRS,ioos:station:NOAA.NERRS:gndbhwq:1,2012-06-06T14:45:00Z,30.4178,-88.4054,0.0,24.4,1111122 
NERRS,ioos:station:NOAA.NERRS:gndbhwq:1,2012-06-06T15:45:00Z,30.4178,-88.4054,0.0,24.5,1111122 
NERRS,ioos:station:NOAA.NERRS:gndbhwq:1,2012-06-06T16:45:00Z,30.4178,-88.4054,0.0,24.6,1111122 
NERRS,ioos:station:NOAA.NERRS:gndbhwq:1,2012-06-06T17:45:00Z,30.4178,-88.4054,0.0,24.6,1111122 
NERRS,ioos:station:NOAA.NERRS:gndbhwq:1,2012-06-06T18:45:00Z,30.4178,-88.4054,0.0,24.6,1111122 
NERRS,ioos:station:NOAA.NERRS:gndbhwq:1,2012-06-06T19:45:00Z,30.4178,-88.4054,0.0,24.6,1111122 
NERRS,ioos:station:NOAA.NERRS:gndbhwq:1,2012-06-06T20:45:00Z,30.4178,-88.4054,0.0,24.4,1111122 
NERRS,ioos:station:NOAA.NERRS:gndbhwq:1,2012-06-06T21:45:00Z,30.4178,-88.4054,0.0,24.3,1111122 
NERRS,ioos:station:NOAA.NERRS:gndbhwq:1,2012-06-06T22:45:00Z,30.4178,-88.4054,0.0,24.2,1111122 
NERRS,ioos:station:NOAA.NERRS:gndbhwq:1,2012-06-06T23:45:00Z,30.4178,-88.4054,0.0,24.2,1111122 
NERRS,ioos:station:NOAA.NERRS:gndbhwq:1,2012-06-07T00:45:00Z,30.4178,-88.4054,0.0,24.0,1111122 
NERRS,ioos:station:NOAA.NERRS:gndbhwq:1,2012-06-07T01:45:00Z,30.4178,-88.4054,0.0,23.8,1111122 
NERRS,ioos:station:NOAA.NERRS:gndbhwq:1,2012-06-07T02:45:00Z,30.4178,-88.4054,0.0,24.0,1111122 
NERRS,ioos:station:NOAA.NERRS:gndbhwq:1,2012-06-07T03:45:00Z,30.4178,-88.4054,0.0,24.2,1111122 
NERRS,ioos:station:NOAA.NERRS:gndbhwq:1,2012-06-07T04:45:00Z,30.4178,-88.4054,0.0,24.3,1111122 
NERRS,ioos:station:NOAA.NERRS:gndbhwq:1,2012-06-07T05:45:00Z,30.4178,-88.4054,0.0,24.3,1111122 
NERRS,ioos:station:NOAA.NERRS:gndbhwq:1,2012-06-07T06:45:00Z,30.4178,-88.4054,0.0,24.1,1111122 
NERRS,ioos:station:NOAA.NERRS:gndbhwq:1,2012-06-07T07:45:00Z,30.4178,-88.4054,0.0,24.2,1111122 
NERRS,ioos:station:NOAA.NERRS:gndbhwq:1,2012-06-07T08:45:00Z,30.4178,-88.4054,0.0,24.5,1111122 
NERRS,ioos:station:NOAA.NERRS:gndbhwq:1,2012-06-07T09:45:00Z,30.4178,-88.4054,0.0,24.5,1111122 
NERRS,ioos:station:NOAA.NERRS:gndbhwq:1,2012-06-07T10:45:00Z,30.4178,-88.4054,0.0,24.5,1111122 
NERRS,ioos:station:NOAA.NERRS:gndbhwq:1,2012-06-07T11:45:00Z,30.4178,-88.4054,0.0,24.5,1111122 
NERRS,ioos:station:NOAA.NERRS:gndbhwq:1,2012-06-07T12:45:00Z,30.4178,-88.4054,0.0,24.7,1111122 
NERRS,ioos:station:NOAA.NERRS:gndbhwq:1,2012-06-07T13:15:00Z,30.4178,-88.4054,0.0,24.8,1111122 
NERRS,ioos:station:NOAA.NERRS:gndbhwq:1,2012-06-14T20:45:00Z,30.4178,-88.4054,0.0,19.2,1111122 
NERRS,ioos:station:NOAA.NERRS:gndbhwq:1,2012-06-14T21:45:00Z,30.4178,-88.4054,0.0,19.3,1111122 
NERRS,ioos:station:NOAA.NERRS:gndbhwq:1,2012-06-14T22:45:00Z,30.4178,-88.4054,0.0,19.3,1111122 
NERRS,ioos:station:NOAA.NERRS:gndbhwq:1,2012-06-14T23:45:00Z,30.4178,-88.4054,0.0,19.3,1111122 
NERRS,ioos:station:NOAA.NERRS:gndbhwq:1,2012-06-15T00:45:00Z,30.4178,-88.4054,0.0,19.3,1111122 
NERRS,ioos:station:NOAA.NERRS:gndbhwq:1,2012-06-15T01:45:00Z,30.4178,-88.4054,0.0,19.1,1111122 
NERRS,ioos:station:NOAA.NERRS:gndbhwq:1,2012-06-15T02:30:00Z,30.4178,-88.4054,0.0,19.3,1111122 
NERRS,ioos:station:NOAA.NERRS:gndbhwq:1,2012-06-15T13:45:00Z,30.4178,-88.4054,0.0,18.9,1111122 
NERRS,ioos:station:NOAA.NERRS:gndbhwq:1,2012-06-15T14:15:00Z,30.4178,-88.4054,0.0,19.1,1111122 
NERRS,ioos:station:NOAA.NERRS:gndbhwq:1,2012-06-15T15:45:00Z,30.4178,-88.4054,0.0,19.3,1111122 
NERRS,ioos:station:NOAA.NERRS:gndbhwq:1,2012-06-15T16:45:00Z,30.4178,-88.4054,0.0,19.0,1111122 
NERRS,ioos:station:NOAA.NERRS:gndbhwq:1,2012-06-15T17:45:00Z,30.4178,-88.4054,0.0,19.0,1111122 
NERRS,ioos:station:NOAA.NERRS:gndbhwq:1,2012-06-15T18:45:00Z,30.4178,-88.4054,0.0,19.0,1111122 
NERRS,ioos:station:NOAA.NERRS:gndbhwq:1,2012-06-15T19:45:00Z,30.4178,-88.4054,0.0,18.8,1111122 
NERRS,ioos:station:NOAA.NERRS:gndbhwq:1,2012-06-15T20:45:00Z,30.4178,-88.4054,0.0,18.4,1111122 
NERRS,ioos:station:NOAA.NERRS:gndbhwq:1,2012-06-15T21:45:00Z,30.4178,-88.4054,0.0,13.7,1111122 
NERRS,ioos:station:NOAA.NERRS:gndbhwq:1,2012-06-15T22:45:00Z,30.4178,-88.4054,0.0,19.0,1111122 
NERRS,ioos:station:NOAA.NERRS:gndbhwq:1,2012-06-15T23:45:00Z,30.4178,-88.4054,0.0,19.0,1111122 
NERRS,ioos:station:NOAA.NERRS:gndbhwq:1,2012-06-16T00:45:00Z,30.4178,-88.4054,0.0,19.0,1111122 
NERRS,ioos:station:NOAA.NERRS:gndbhwq:1,2012-06-16T01:45:00Z,30.4178,-88.4054,0.0,18.9,1111122 
NERRS,ioos:station:NOAA.NERRS:gndbhwq:1,2012-06-16T02:45:00Z,30.4178,-88.4054,0.0,18.4,1111122 
NERRS,ioos:station:NOAA.NERRS:gndbhwq:1,2012-06-16T03:45:00Z,30.4178,-88.4054,0.0,18.1,1111122 
NERRS,ioos:station:NOAA.NERRS:gndbhwq:1,2012-06-16T04:45:00Z,30.4178,-88.4054,0.0,18.8,1111122 
NERRS,ioos:station:NOAA.NERRS:gndbhwq:1,2012-06-16T05:45:00Z,30.4178,-88.4054,0.0,18.6,1111122 
NERRS,ioos:station:NOAA.NERRS:gndbhwq:1,2012-06-16T06:45:00Z,30.4178,-88.4054,0.0,18.0,1111122 
NERRS,ioos:station:NOAA.NERRS:gndbhwq:1,2012-06-16T07:45:00Z,30.4178,-88.4054,0.0,17.7,1111122 
NERRS,ioos:station:NOAA.NERRS:gndbhwq:1,2012-06-16T08:45:00Z,30.4178,-88.4054,0.0,18.4,1111122 
NERRS,ioos:station:NOAA.NERRS:gndbhwq:1,2012-06-16T09:45:00Z,30.4178,-88.4054,0.0,18.3,1111122 
NERRS,ioos:station:NOAA.NERRS:gndbhwq:1,2012-06-16T10:45:00Z,30.4178,-88.4054,0.0,18.2,1111122 
NERRS,ioos:station:NOAA.NERRS:gndbhwq:1,2012-06-16T11:45:00Z,30.4178,-88.4054,0.0,18.5,1111122 
NERRS,ioos:station:NOAA.NERRS:gndbhwq:1,2012-06-16T12:45:00Z,30.4178,-88.4054,0.0,18.5,1111122 
NERRS,ioos:station:NOAA.NERRS:gndbhwq:1,2012-06-16T13:45:00Z,30.4178,-88.4054,0.0,18.5,1111122 
NERRS,ioos:station:NOAA.NERRS:gndbhwq:1,2012-06-16T14:45:00Z,30.4178,-88.4054,0.0,18.4,1111122 
NERRS,ioos:station:NOAA.NERRS:gndbhwq:1,2012-06-16T15:45:00Z,30.4178,-88.4054,0.0,18.4,1111122 
NERRS,ioos:station:NOAA.NERRS:gndbhwq:1,2012-06-16T16:45:00Z,30.4178,-88.4054,0.0,18.5,1111122 
NERRS,ioos:station:NOAA.NERRS:gndbhwq:1,2012-06-16T17:45:00Z,30.4178,-88.4054,0.0,18.7,1111122 
NERRS,ioos:station:NOAA.NERRS:gndbhwq:1,2012-06-16T18:45:00Z,30.4178,-88.4054,0.0,18.9,1111122 
NERRS,ioos:station:NOAA.NERRS:gndbhwq:1,2012-06-16T19:45:00Z,30.4178,-88.4054,0.0,19.7,1111122 
NERRS,ioos:station:NOAA.NERRS:gndbhwq:1,2012-06-16T20:45:00Z,30.4178,-88.4054,0.0,18.6,1111122 
NERRS,ioos:station:NOAA.NERRS:gndbhwq:1,2012-06-16T21:45:00Z,30.4178,-88.4054,0.0,18.6,1111122 
NERRS,ioos:station:NOAA.NERRS:gndbhwq:1,2012-06-16T22:45:00Z,30.4178,-88.4054,0.0,18.5,1111122 
NERRS,ioos:station:NOAA.NERRS:gndbhwq:1,2012-06-16T23:45:00Z,30.4178,-88.4054,0.0,18.3,1111122 
NERRS,ioos:station:NOAA.NERRS:gndbhwq:1,2012-06-17T00:45:00Z,30.4178,-88.4054,0.0,18.1,1111122 
NERRS,ioos:station:NOAA.NERRS:gndbhwq:1,2012-06-17T01:45:00Z,30.4178,-88.4054,0.0,18.2,1111122 
NERRS,ioos:station:NOAA.NERRS:gndbhwq:1,2012-06-17T02:45:00Z,30.4178,-88.4054,0.0,18.2,1111122 
NERRS,ioos:station:NOAA.NERRS:gndbhwq:1,2012-06-17T03:45:00Z,30.4178,-88.4054,0.0,18.6,1111122 
NERRS,ioos:station:NOAA.NERRS:gndbhwq:1,2012-06-17T04:45:00Z,30.4178,-88.4054,0.0,19.5,1111122 
NERRS,ioos:station:NOAA.NERRS:gndbhwq:1,2012-06-17T05:45:00Z,30.4178,-88.4054,0.0,18.9,1111122 
NERRS,ioos:station:NOAA.NERRS:gndbhwq:1,2012-06-17T06:45:00Z,30.4178,-88.4054,0.0,19.0,1111122 
NERRS,ioos:station:NOAA.NERRS:gndbhwq:1,2012-06-17T07:45:00Z,30.4178,-88.4054,0.0,18.9,1111122 
NERRS,ioos:station:NOAA.NERRS:gndbhwq:1,2012-06-17T08:45:00Z,30.4178,-88.4054,0.0,19.3,1111122 
NERRS,ioos:station:NOAA.NERRS:gndbhwq:1,2012-06-17T09:45:00Z,30.4178,-88.4054,0.0,19.7,1111122 
NERRS,ioos:station:NOAA.NERRS:gndbhwq:1,2012-06-17T10:45:00Z,30.4178,-88.4054,0.0,19.9,1111122 
NERRS,ioos:station:NOAA.NERRS:gndbhwq:1,2012-06-17T11:45:00Z,30.4178,-88.4054,0.0,19.8,1111122 
NERRS,ioos:station:NOAA.NERRS:gndbhwq:1,2012-06-17T12:45:00Z,30.4178,-88.4054,0.0,20.0,1111122 
NERRS,ioos:station:NOAA.NERRS:gndbhwq:1,2012-06-17T13:45:00Z,30.4178,-88.4054,0.0,20.1,1111122 
NERRS,ioos:station:NOAA.NERRS:gndbhwq:1,2012-06-17T14:45:00Z,30.4178,-88.4054,0.0,20.1,1111122 
NERRS,ioos:station:NOAA.NERRS:gndbhwq:1,2012-06-17T15:45:00Z,30.4178,-88.4054,0.0,20.1,1111122 
NERRS,ioos:station:NOAA.NERRS:gndbhwq:1,2012-06-17T16:45:00Z,30.4178,-88.4054,0.0,20.0,1111122 
NERRS,ioos:station:NOAA.NERRS:gndbhwq:1,2012-06-17T17:45:00Z,30.4178,-88.4054,0.0,19.8,1111122 
NERRS,ioos:station:NOAA.NERRS:gndbhwq:1,2012-06-17T18:45:00Z,30.4178,-88.4054,0.0,19.8,1111122 
NERRS,ioos:station:NOAA.NERRS:gndbhwq:1,2012-06-17T19:45:00Z,30.4178,-88.4054,0.0,19.7,1111122 
NERRS,ioos:station:NOAA.NERRS:gndbhwq:1,2012-06-17T20:45:00Z,30.4178,-88.4054,0.0,19.5,1111122 
NERRS,ioos:station:NOAA.NERRS:gndbhwq:1,2012-06-17T21:45:00Z,30.4178,-88.4054,0.0,19.6,1111122 
NERRS,ioos:station:NOAA.NERRS:gndbhwq:1,2012-06-17T22:45:00Z,30.4178,-88.4054,0.0,19.2,1111122 
NERRS,ioos:station:NOAA.NERRS:gndbhwq:1,2012-06-17T23:45:00Z,30.4178,-88.4054,0.0,19.0,1111122 
NERRS,ioos:station:NOAA.NERRS:gndbhwq:1,2012-06-18T00:45:00Z,30.4178,-88.4054,0.0,19.2,1111122 
NERRS,ioos:station:NOAA.NERRS:gndbhwq:1,2012-06-18T01:45:00Z,30.4178,-88.4054,0.0,18.4,1111122 
NERRS,ioos:station:NOAA.NERRS:gndbhwq:1,2012-06-18T02:45:00Z,30.4178,-88.4054,0.0,18.3,1111122 
NERRS,ioos:station:NOAA.NERRS:gndbhwq:1,2012-06-18T03:45:00Z,30.4178,-88.4054,0.0,18.2,1111122 
NERRS,ioos:station:NOAA.NERRS:gndbhwq:1,2012-06-18T04:45:00Z,30.4178,-88.4054,0.0,18.2,1111122 
NERRS,ioos:station:NOAA.NERRS:gndbhwq:1,2012-06-18T05:45:00Z,30.4178,-88.4054,0.0,18.2,1111122 
NERRS,ioos:station:NOAA.NERRS:gndbhwq:1,2012-06-18T06:45:00Z,30.4178,-88.4054,0.0,18.4,1111122 
NERRS,ioos:station:NOAA.NERRS:gndbhwq:1,2012-06-18T07:45:00Z,30.4178,-88.4054,0.0,18.4,1111122 
NERRS,ioos:station:NOAA.NERRS:gndbhwq:1,2012-06-18T08:45:00Z,30.4178,-88.4054,0.0,18.6,1111122 
NERRS,ioos:station:NOAA.NERRS:gndbhwq:1,2012-06-18T09:45:00Z,30.4178,-88.4054,0.0,18.5,1111122 
NERRS,ioos:station:NOAA.NERRS:gndbhwq:1,2012-06-18T10:45:00Z,30.4178,-88.4054,0.0,18.6,1111122 
NERRS,ioos:station:NOAA.NERRS:gndbhwq:1,2012-06-18T11:45:00Z,30.4178,-88.4054,0.0,18.9,1111122 
NERRS,ioos:station:NOAA.NERRS:gndbhwq:1,2012-06-18T12:45:00Z,30.4178,-88.4054,0.0,19.2,1111122 
NERRS,ioos:station:NOAA.NERRS:gndbhwq:1,2012-06-18T13:45:00Z,30.4178,-88.4054,0.0,19.6,1111122 
NERRS,ioos:station:NOAA.NERRS:gndbhwq:1,2012-06-18T14:45:00Z,30.4178,-88.4054,0.0,19.9,1111122 
NERRS,ioos:station:NOAA.NERRS:gndbhwq:1,2012-06-18T15:45:00Z,30.4178,-88.4054,0.0,19.7,1111122 
NERRS,ioos:station:NOAA.NERRS:gndbhwq:1,2012-06-18T16:45:00Z,30.4178,-88.4054,0.0,19.7,1111122 
NERRS,ioos:station:NOAA.NERRS:gndbhwq:1,2012-06-18T17:45:00Z,30.4178,-88.4054,0.0,19.4,1111122 
NERRS,ioos:station:NOAA.NERRS:gndbhwq:1,2012-06-18T18:45:00Z,30.4178,-88.4054,0.0,19.0,1111122 
NERRS,ioos:station:NOAA.NERRS:gndbhwq:1,2012-06-18T19:45:00Z,30.4178,-88.4054,0.0,19.0,1111122 
NERRS,ioos:station:NOAA.NERRS:gndbhwq:1,2012-06-18T20:45:00Z,30.4178,-88.4054,0.0,18.7,1111122 
NERRS,ioos:station:NOAA.NERRS:gndbhwq:1,2012-06-18T21:45:00Z,30.4178,-88.4054,0.0,18.6,1111122 
NERRS,ioos:station:NOAA.NERRS:gndbhwq:1,2012-06-18T22:45:00Z,30.4178,-88.4054,0.0,18.3,1111122 
NERRS,ioos:station:NOAA.NERRS:gndbhwq:1,2012-06-18T23:45:00Z,30.4178,-88.4054,0.0,18.2,1111122 
NERRS,ioos:station:NOAA.NERRS:gndbhwq:1,2012-06-19T00:45:00Z,30.4178,-88.4054,0.0,16.5,1111122 